West Lafayette, IN

9:39 AM EST on February 19, 2017 (GMT -0500)
Purdue Univ

Weather History for KLAF - November, 2013

Change the Weather History Date:

Wednesday, November 6, 2013

  Actual Average Record
Temperature  
Mean Temperature 48 °F 47 °F  
Max Temperature 59 °F 56 °F 77 °F (1975)
Min Temperature 36 °F 38 °F 21 °F (1973)
Degree Days  
Heating Degree Days 17 18  
Month to date heating degree days 110 102  
Since 1 July heating degree days 541 536  
Cooling Degree Days 0 0  
Month to date cooling degree days 0 0  
Year to date cooling degree days 884 982  
Moisture  
Dew Point 46 °F    
Average Humidity 79    
Maximum Humidity 100    
Minimum Humidity 57    
Precipitation  
Precipitation 0.22 in 0.09 in 1.16 in (1951)
Month to date precipitation 0.27 0.55  
Year to date precipitation 35.85 31.65  
Sea Level Pressure  
Sea Level Pressure 30.01 in    
Wind  
Wind Speed 11 mph (SW)    
Max Wind Speed 22 mph    
Max Gust Speed 28 mph    
Visibility 8 miles    
Events Rain    
T = Trace of Precipitation, MM = Missing Value Source: NWS Daily Summary

Daily Weather History Graph

Daily Weather History Graph

Search for Another Location

Airport or City:

Trip Planner

Search our weather history database for the weather conditions in past years. The results will help you decide how hot, cold, wet, or windy it might be!

Date:

Astronomy

Nov. 06, 2013 Rise Set
Actual Time 7:23 AM EST 5:38 PM EST
Civil Twilight 6:55 AM EST 6:07 PM EST
Nautical Twilight 6:22 AM EST 6:39 PM EST
Astronomical Twilight 5:50 AM EST 7:11 PM EST
Moon 10:38 AM EST (11/6) 8:42 PM EST (11/6)
Length of Visible Light 11h 12m
Length of Day
10h 15m
Waxing Crescent, 13% of the Moon is Illuminated
Nov 6
Waxing Crescent
Nov 10
First Quarter
Nov 17
Full
Nov 25
Last Quarter
Dec 2
New

Hourly Weather History & Observations

Time (EST) Temp. Windchill Dew Point Humidity Pressure Visibility Wind Dir Wind Speed Gust Speed Precip Events Conditions
12:54 AM 55.9 °F - 42.1 °F 60% 30.08 in 10.0 mi South 8.1 mph - N/A   Overcast
1:54 AM 57.0 °F - 43.0 °F 59% 30.05 in 10.0 mi South 8.1 mph - N/A   Overcast
2:54 AM 57.9 °F - 45.0 °F 62% 30.02 in 10.0 mi South 8.1 mph - N/A   Overcast
3:54 AM 57.0 °F - 50.0 °F 77% 30.01 in 10.0 mi SSW 9.2 mph 17.3 mph 0.03 in Rain Light Rain
4:54 AM 55.0 °F - 51.1 °F 86% 29.98 in 10.0 mi South 8.1 mph 16.1 mph 0.01 in Rain Light Rain
5:54 AM 55.0 °F - 52.0 °F 89% 29.98 in 10.0 mi South 10.4 mph 20.7 mph 0.01 in Rain Light Rain
6:54 AM 55.0 °F - 50.0 °F 83% 29.97 in 10.0 mi South 10.4 mph 20.7 mph 0.03 in Rain Light Rain
7:54 AM 54.0 °F - 50.0 °F 86% 29.96 in 10.0 mi South 13.8 mph 23.0 mph 0.03 in Rain Light Rain
8:54 AM 53.1 °F - 50.0 °F 89% 29.97 in 10.0 mi SSW 10.4 mph 24.2 mph 0.01 in Rain Light Rain
9:05 AM 53.6 °F - 50.0 °F 88% 29.96 in 10.0 mi SSW 13.8 mph 20.7 mph 0.00 in Rain Light Rain
9:54 AM 53.1 °F - 50.0 °F 89% 29.96 in 7.0 mi South 16.1 mph 25.3 mph 0.02 in Rain Light Rain
10:10 AM 53.6 °F - 51.8 °F 94% 29.95 in 5.0 mi South 11.5 mph 21.9 mph 0.01 in Rain Light Rain
10:25 AM 51.8 °F - 51.8 °F 100% 29.95 in 2.0 mi SSW 12.7 mph 25.3 mph 0.03 in Rain Rain
10:40 AM 51.8 °F - 51.8 °F 100% 29.95 in 4.0 mi SSW 12.7 mph 19.6 mph 0.04 in Rain Light Rain
10:54 AM 53.1 °F - 51.1 °F 93% 29.95 in 9.0 mi SSW 15.0 mph 20.7 mph 0.04 in   Overcast
11:54 AM 53.1 °F - 51.1 °F 93% 29.94 in 10.0 mi SSW 13.8 mph 20.7 mph 0.02 in Rain Light Rain
12:54 PM 54.0 °F - 51.1 °F 90% 29.91 in 10.0 mi SW 11.5 mph 21.9 mph 0.00 in   Overcast
1:54 PM 54.0 °F - 51.1 °F 90% 29.92 in 10.0 mi SSW 12.7 mph 20.7 mph N/A   Overcast
2:54 PM 54.0 °F - 52.0 °F 93% 29.93 in 10.0 mi SW 13.8 mph 20.7 mph N/A   Overcast
3:21 PM 51.8 °F - 51.8 °F 100% 29.94 in 5.0 mi West 12.7 mph 24.2 mph 0.00 in Rain Light Rain
3:34 PM 50.0 °F - 48.2 °F 94% 29.95 in 1.8 mi WNW 16.1 mph 26.5 mph 0.00 in Rain Light Rain
3:54 PM 46.9 °F - 46.0 °F 97% 29.98 in 1.8 mi West 16.1 mph - 0.00 in   Overcast
4:01 PM 46.4 °F 40.1 °F 44.6 °F 93% 29.97 in 9.0 mi WNW 15.0 mph 24.2 mph N/A   Overcast
4:54 PM 44.1 °F 37.7 °F 42.1 °F 93% 30.01 in 8.0 mi WNW 12.7 mph 23.0 mph 0.00 in   Overcast
5:54 PM 43.0 °F 37.2 °F 41.0 °F 93% 30.05 in 3.0 mi West 10.4 mph 19.6 mph 0.02 in   Overcast
6:18 PM 42.8 °F 35.4 °F 39.2 °F 87% 30.05 in 10.0 mi WNW 15.0 mph 21.9 mph N/A   Overcast
6:39 PM 42.8 °F 35.4 °F 39.2 °F 87% 30.06 in 10.0 mi WNW 15.0 mph 21.9 mph N/A   Overcast
6:54 PM 41.0 °F 33.1 °F 39.9 °F 96% 30.09 in 7.0 mi WNW 15.0 mph 20.7 mph N/A   Overcast
7:54 PM 41.0 °F 35.2 °F 37.9 °F 89% 30.12 in 10.0 mi West 9.2 mph - 0.00 in   Overcast
8:54 PM 41.0 °F 35.2 °F 37.9 °F 89% 30.11 in 10.0 mi WNW 9.2 mph 17.3 mph N/A   Overcast
9:42 PM 41.0 °F 34.7 °F 35.6 °F 81% 30.12 in 10.0 mi NW 10.4 mph 17.3 mph N/A   Overcast
9:54 PM 41.0 °F 34.7 °F 35.1 °F 79% 30.12 in 10.0 mi NW 10.4 mph - N/A   Mostly Cloudy
10:54 PM 39.0 °F - 36.0 °F 89% 30.14 in 10.0 mi Calm Calm - N/A   Mostly Cloudy
11:54 PM 37.0 °F 33.3 °F 35.1 °F 93% 30.15 in 10.0 mi West 4.6 mph - N/A   Clear